Location: Maiden
(35.5760°N, 81.2120°W)
Time: 21:29:39
(UTC-04:00)

A-11 Canister half - Pass Details

Date: 19 August 2020
Orbit: 1514 x 1686 km, 47.2° (Epoch: 26 September)

Event Time Altitude Azimuth Distance (km) Brightness Sun altitude
Rises 21:29:48 0° 301° (WNW) 4,787 13.5 -16.1°
Reaches altitude 10° 21:32:57 10° 305° (NW) 3,824 12.4 -16.7°
Maximum altitude 21:42:39 61° 25° (NNE) 1,826 9.4 -18.4°
Enters shadow 21:49:20 24° 99° (E) 2,981 10.0 -19.5°
